Sussex, NJ

8:16 PM EDT on June 26, 2017 (GMT -0400)
Sussex

Weather History for KFWN - September, 2013

Change the Weather History Date:

Monday, September 2, 2013

  Actual Average Record
Temperature  
Mean Temperature 73 °F -  
Max Temperature 81 °F 78 °F 101 °F (1953)
Min Temperature 66 °F 53 °F 36 °F (1970)
Cooling Degree Days 8    
Growing Degree Days 23 (Base 50)    
Moisture  
Dew Point 69 °F    
Average Humidity 95    
Maximum Humidity 100    
Minimum Humidity 71    
Precipitation  
Precipitation 0.12 in - - ()
Sea Level Pressure  
Sea Level Pressure 29.78 in    
Wind  
Wind Speed 0 mph (SSW)    
Max Wind Speed 7 mph    
Max Gust Speed -    
Visibility 5 miles    
Events Fog , Rain , Thunderstorm    
Averages and records for this station are not official NWS values.
T = Trace of Precipitation, MM = Missing Value Source: NWS Daily Summary

Daily Weather History Graph

Daily Weather History Graph

Search for Another Location

Airport or City:

Trip Planner

Search our weather history database for the weather conditions in past years. The results will help you decide how hot, cold, wet, or windy it might be!

Date:

Astronomy

Sep. 02, 2013 Rise Set
Actual Time 6:26 AM EDT 7:29 PM EDT
Civil Twilight 5:57 AM EDT 7:57 PM EDT
Nautical Twilight 5:24 AM EDT 8:30 PM EDT
Astronomical Twilight 4:48 AM EDT 9:06 PM EDT
Moon 3:39 AM EDT (9/2) 5:41 PM EDT (9/2)
Length of Visible Light 13h 59m
Length of Day
13h 03m
Waning Crescent, 8% of the Moon is Illuminated
Sep 2
Waning Crescent
Sep 5
New
Sep 12
First Quarter
Sep 19
Full
Sep 26
Last Quarter

Hourly Weather History & Observations

Time (EDT) Temp. Heat Index Dew Point Humidity Pressure Visibility Wind Dir Wind Speed Gust Speed Precip Events Conditions
12:53 AM 69.1 °F - 69.1 °F 100% 29.81 in 7.0 mi Calm Calm - N/A   Clear
1:53 AM 68.0 °F - 68.0 °F 100% 29.81 in 3.0 mi Calm Calm - N/A   Clear
2:53 AM 68.0 °F - 68.0 °F 100% 29.79 in 5.0 mi Calm Calm - N/A   Clear
3:18 AM 66.2 °F - 66.2 °F 100% 29.79 in 2.0 mi Calm Calm - N/A   Clear
3:22 AM 66.2 °F - 66.2 °F 100% 29.79 in 1.5 mi Calm Calm - N/A   Partly Cloudy
3:25 AM 66.2 °F - 66.2 °F 100% 29.79 in 1.0 mi Calm Calm - N/A   Mist
3:29 AM 66.2 °F - 66.2 °F 100% 29.79 in 0.8 mi Calm Calm - N/A   Mostly Cloudy
3:39 AM 68.0 °F - 68.0 °F 100% 29.79 in 0.5 mi Calm Calm - N/A Fog Fog
3:50 AM 68.0 °F - 68.0 °F 100% 29.79 in 1.0 mi Calm Calm - N/A   Overcast
3:53 AM 68.0 °F - 68.0 °F 100% 29.78 in 1.5 mi Calm Calm - N/A   Overcast
4:03 AM 68.0 °F - 68.0 °F 100% 29.79 in 2.5 mi Calm Calm - N/A   Overcast
4:14 AM 68.0 °F - 68.0 °F 100% 29.79 in 4.0 mi Calm Calm - N/A   Overcast
4:53 AM 69.1 °F - 68.0 °F 96% 29.78 in 6.0 mi Calm Calm - N/A   Overcast
5:23 AM 69.8 °F - 69.8 °F 100% 29.79 in 5.0 mi Calm Calm - N/A   Overcast
5:40 AM 69.8 °F - 69.8 °F 100% 29.79 in 5.0 mi Calm Calm - N/A   Overcast
5:53 AM 69.1 °F - 69.1 °F 100% 29.79 in 4.0 mi Calm Calm - N/A   Overcast
6:10 AM 69.8 °F - 69.8 °F 100% 29.79 in 2.0 mi Calm Calm - N/A   Overcast
6:13 AM 69.8 °F - 69.8 °F 100% 29.79 in 1.8 mi Calm Calm - N/A   Overcast
6:29 AM 69.8 °F - 69.8 °F 100% 29.79 in 1.2 mi Calm Calm - N/A   Overcast
6:36 AM 69.8 °F - 69.8 °F 100% 29.80 in 1.5 mi Calm Calm - N/A   Overcast
6:53 AM 69.1 °F - 69.1 °F 100% 29.79 in 1.0 mi Calm Calm - N/A   Overcast
7:13 AM 69.8 °F - 69.8 °F 100% 29.80 in 0.8 mi Calm Calm - N/A Thunderstorm Overcast
7:24 AM 69.8 °F - 69.8 °F 100% 29.81 in 1.0 mi Calm Calm - 0.01 in Rain , Thunderstorm Light Rain
7:46 AM 69.8 °F - 69.8 °F 100% 29.81 in 0.8 mi Calm Calm - 0.07 in Rain , Thunderstorm Thunderstorms and Rain
7:53 AM 70.0 °F - 70.0 °F 100% 29.80 in 1.0 mi Calm Calm - 0.09 in Rain , Thunderstorm Thunderstorms and Rain
8:03 AM 69.8 °F - 69.8 °F 100% 29.80 in 2.0 mi Calm Calm - 0.01 in Rain , Thunderstorm Light Thunderstorms and Rain
8:08 AM 69.8 °F - 69.8 °F 100% 29.80 in 3.0 mi Calm Calm - 0.01 in Rain , Thunderstorm Light Thunderstorms and Rain
8:18 AM 71.6 °F - 69.8 °F 94% 29.81 in 3.0 mi Calm Calm - 0.01 in Thunderstorm Mostly Cloudy
8:36 AM 71.6 °F - 69.8 °F 94% 29.81 in 4.0 mi Calm Calm - 0.01 in   Mostly Cloudy
8:53 AM 71.1 °F - 70.0 °F 96% 29.80 in 5.0 mi Calm Calm - 0.01 in   Overcast
9:48 AM 73.4 °F - 71.6 °F 94% 29.80 in 10.0 mi Calm Calm - N/A   Mostly Cloudy
9:53 AM 75.0 °F - 71.1 °F 87% 29.79 in 10.0 mi Calm Calm - N/A   Mostly Cloudy
10:06 AM 73.4 °F - 71.6 °F 94% 29.80 in 10.0 mi Calm Calm - N/A   Scattered Clouds
10:53 AM 77.0 °F - 71.1 °F 82% 29.79 in 10.0 mi Calm Calm - N/A   Mostly Cloudy
11:38 AM 77.0 °F - 71.6 °F 83% 29.80 in 10.0 mi Calm Calm - N/A   Overcast
11:53 AM 77.0 °F - 72.0 °F 84% 29.79 in 10.0 mi SE 4.6 mph - N/A   Overcast
12:09 PM 78.8 °F - 71.6 °F 78% 29.79 in 10.0 mi Calm Calm - N/A   Mostly Cloudy
12:53 PM 80.1 °F 83.6 °F 71.1 °F 74% 29.77 in 10.0 mi Calm Calm - N/A   Partly Cloudy
1:53 PM 80.1 °F 83.6 °F 71.1 °F 74% 29.77 in 10.0 mi SW 5.8 mph - N/A   Partly Cloudy
2:53 PM 80.1 °F 83.2 °F 70.0 °F 71% 29.75 in 10.0 mi Variable 5.8 mph - N/A   Clear
3:53 PM 78.1 °F - 71.1 °F 79% 29.75 in 10.0 mi SSW 6.9 mph - N/A   Scattered Clouds
4:53 PM 73.9 °F - 70.0 °F 87% 29.74 in 9.0 mi Calm Calm - 0.00 in Rain Light Rain
5:53 PM 75.0 °F - 71.1 °F 87% 29.72 in 10.0 mi South 4.6 mph - 0.00 in   Clear
6:53 PM 73.9 °F - 70.0 °F 87% 29.72 in 10.0 mi South 3.5 mph - N/A   Clear
7:53 PM 72.0 °F - 70.0 °F 93% 29.72 in 10.0 mi Calm Calm - N/A   Clear
8:53 PM 70.0 °F - 69.1 °F 97% 29.73 in 9.0 mi Calm Calm - N/A   Clear
9:53 PM 69.1 °F - 69.1 °F 100% 29.75 in 6.0 mi Calm Calm - N/A   Partly Cloudy
10:51 PM 69.8 °F - 69.8 °F 100% 29.75 in 8.0 mi Calm Calm - N/A   Mostly Cloudy
10:53 PM 69.1 °F - 69.1 °F 100% 29.74 in 8.0 mi Calm Calm - N/A   Mostly Cloudy
11:22 PM 69.8 °F - 68.0 °F 94% 29.76 in 6.0 mi Calm Calm - N/A   Partly Cloudy
11:39 PM 69.8 °F - 68.0 °F 94% 29.78 in 7.0 mi North 5.8 mph - N/A   Scattered Clouds
11:53 PM 71.1 °F - 70.0 °F 96% 29.78 in 5.0 mi North 3.5 mph - 0.02 in Rain Light Rain